Location: Hillern
(53.0557°N, 9.8577°E)
Time: 01:14:33
(UTC+00:00)

Spot 2 Rocket - Pass Details

Date: 19 May 2025
Orbit: 753 x 766 km, 98.3° (Epoch: 23 June)

Event Time Altitude Azimuth Distance (km) Brightness Sun altitude
Exits shadow 20:17:46 - 165° (SSE) 2,651 5.7 -7.3°
Reaches altitude 10° 20:18:42 10° 166° (SSE) 2,276 5.4 -7.4°
Maximum altitude 20:23:43 84° 254° (WSW) 768 3.6 -7.9°
Drops below altitude 10° 20:28:48 10° 344° (NNW) 2,299 7.2 -8.4°
Sets 20:31:07 0° 345° (NNW) 3,231 8.1 -8.6°
